{"data":{"norad_id":66576,"epoch":"2026-05-24T18:24:46.926720Z","epoch_age_seconds":99177,"freshness":"FRESH","line1":"1 66576U 25268V   26144.76720980  .00013444  00000+0  49764-3 0  9997","line2":"2 66576  43.0025 277.5221 0001537 271.3113  88.7562 15.27550444 29594","mean_motion":15.27550444,"eccentricity":0.0001537,"inclination_deg":43.0025,"raan_deg":277.5221,"arg_perigee_deg":271.3113,"mean_anomaly_deg":88.7562,"bstar":0.00049764,"rev_number":2959,"period_min":94.268572645579,"perigee_km":482.08302085752,"apogee_km":484.19217666918,"semimajor_km":6861.2745987633,"source":"CELESTRAK","updated_at":"2026-05-25T13:38:21.283853Z"}}